Weather History for West Palm Beach, FL

Change the Weather History Date:

Thursday, November 8, 2012

  Actual Average Record
Temperature  
Mean Temperature 61 °F 74 °F  
Max Temperature 70 °F 81 °F 90 °F (1958)
Min Temperature 52 °F 67 °F 44 °F (1923)
Degree Days  
Heating Degree Days 4 0  
Month to date heating degree days 4 0  
Since 1 July heating degree days 9 1  
Cooling Degree Days 0 9  
Month to date cooling degree days 36 77  
Year to date cooling degree days 3887 3698  
Growing Degree Days 11 (Base 50)    
Moisture  
Dew Point 44 °F    
Average Humidity 55    
Maximum Humidity 77    
Minimum Humidity 32    
Precipitation  
Precipitation 0.00 in 0.17 in 4.15 in (1982)
Month to date precipitation T 1.38  
Year to date precipitation 76.85 55.58  
Snow  
Snow 0.00 in - - ()
Month to date snowfall 0.0  
Since 1 July snowfall 0.0  
Since 1 September snowfall 0.0  
Snow Depth 0.00 in    
Sea Level Pressure  
Sea Level Pressure 30.05 in    
Wind  
Wind Speed 12 mph (NW)    
Max Wind Speed 21 mph    
Max Gust Speed 25 mph    
Visibility 10 miles    
Events      
T = Trace of Precipitation, MM = Missing Value Source: NWS Daily Summary

Daily Weather History Graph

Daily Weather History Graph

Search for Another Location

Airport:

Trip Planner

Search our weather history database for the weather conditions in past years. The results will help you decide how hot, cold, wet, or windy it might be!

Date:

Astronomy

Nov. 08, 2012 Rise Set
Actual Time 6:35 AM EST 5:32 PM EST
Civil Twilight 6:10 AM EST 5:57 PM EST
Nautical Twilight 5:43 AM EST 6:24 PM EST
Astronomical Twilight 5:15 AM EST 6:52 PM EST
Moon 1:00 AM EST (11/8) 1:44 PM EST (11/8)
Length of Visible Light 11h 46m
Length of Day
10h 57m
Waning Crescent, 33% of the Moon is Illuminated
Nov 8
Waning Crescent
Nov 13
New
Nov 20
First Quarter
Nov 28
Full
Dec 6
Last Quarter

Hourly Weather History & Observations

Time (EST) Temp. Dew Point Humidity Pressure Visibility Wind Dir Wind Speed Gust Speed Precip Events Conditions
12:53 AM 57.0 °F 45.0 °F 64% 29.97 in 10.0 mi NNW 9.2 mph - N/A   Clear
1:53 AM 54.0 °F 46.0 °F 75% 29.97 in 10.0 mi NW 8.1 mph - N/A   Clear
2:53 AM 54.0 °F 46.0 °F 75% 29.97 in 10.0 mi NW 5.8 mph - N/A   Partly Cloudy
3:53 AM 54.0 °F 46.9 °F 77% 29.99 in 10.0 mi WNW 6.9 mph - N/A   Mostly Cloudy
4:53 AM 55.0 °F 46.0 °F 72% 29.99 in 10.0 mi NNW 8.1 mph - N/A   Partly Cloudy
5:53 AM 55.9 °F 46.0 °F 69% 30.01 in 10.0 mi NW 11.5 mph - N/A   Mostly Cloudy
6:53 AM 55.0 °F 43.0 °F 64% 30.03 in 10.0 mi NNW 9.2 mph - N/A   Mostly Cloudy
7:53 AM 57.9 °F 42.1 °F 56% 30.06 in 10.0 mi NNW 11.5 mph 19.6 mph N/A   Scattered Clouds
8:53 AM 61.0 °F 37.9 °F 42% 30.09 in 10.0 mi NNW 16.1 mph 21.9 mph N/A   Scattered Clouds
9:53 AM 63.0 °F 39.0 °F 41% 30.10 in 10.0 mi NNW 16.1 mph - N/A   Partly Cloudy
10:53 AM 64.9 °F 39.0 °F 39% 30.10 in 10.0 mi NW 18.4 mph 24.2 mph N/A   Partly Cloudy
11:53 AM 66.9 °F 36.0 °F 32% 30.08 in 10.0 mi NNW 15.0 mph 21.9 mph N/A   Partly Cloudy
12:53 PM 68.0 °F 37.9 °F 33% 30.05 in 10.0 mi NNW 15.0 mph - N/A   Partly Cloudy
1:53 PM 70.0 °F 39.0 °F 32% 30.04 in 10.0 mi NW 16.1 mph 23.0 mph N/A   Partly Cloudy
2:30 PM 69.8 °F 39.2 °F 33% 30.03 in 10.0 mi NW 12.7 mph 21.9 mph N/A   Partly Cloudy
2:53 PM 70.0 °F 41.0 °F 35% 30.03 in 10.0 mi NNW 12.7 mph - N/A   Partly Cloudy
3:53 PM 69.1 °F 44.1 °F 40% 30.04 in 10.0 mi NNW 15.0 mph - N/A   Partly Cloudy
4:53 PM 66.9 °F 43.0 °F 42% 30.05 in 10.0 mi North 12.7 mph - N/A   Partly Cloudy
5:53 PM 64.0 °F 45.0 °F 50% 30.06 in 10.0 mi NNW 10.4 mph - N/A   Partly Cloudy
6:53 PM 61.0 °F 48.0 °F 62% 30.07 in 10.0 mi NW 10.4 mph - N/A   Partly Cloudy
7:53 PM 61.0 °F 48.9 °F 64% 30.09 in 10.0 mi NW 12.7 mph - N/A   Partly Cloudy
8:53 PM 60.1 °F 48.9 °F 67% 30.10 in 10.0 mi NW 12.7 mph - N/A   Clear
9:53 PM 59.0 °F 48.9 °F 69% 30.11 in 10.0 mi NW 11.5 mph - N/A   Clear
10:53 PM 57.9 °F 50.0 °F 75% 30.11 in 10.0 mi NW 11.5 mph - N/A   Clear
11:53 PM 57.0 °F 51.1 °F 81% 30.11 in 10.0 mi NW 11.5 mph - N/A   Clear